Time,TemperatureF,DewpointF,PressureIn,WindDirection,WindDirectionDegrees,WindSpeedMPH,WindSpeedGustMPH,Humidity,HourlyPrecipIn,Conditions,Clouds,dailyrainin,SoftwareType,DateUTC
2013-05-28 00:12:00,34.5,19.0,29.75,East,86,0.0,-999.0,53,-99.99,,,0.00,weatherlink.com 1.10,2013-05-28 06:12:00,
2013-05-28 00:27:00,36.0,19.0,29.75,East,86,0.0,-999.0,50,-99.99,,,0.00,weatherlink.com 1.10,2013-05-28 06:27:00,
2013-05-28 00:42:00,35.9,21.0,29.74,East,86,0.0,-999.0,55,-99.99,,,0.00,weatherlink.com 1.10,2013-05-28 06:42:00,
2013-05-28 00:57:00,34.9,19.0,29.74,East,86,0.0,-999.0,53,-99.99,,,0.00,weatherlink.com 1.10,2013-05-28 06:57:00,
2013-05-28 01:12:00,34.2,19.0,29.74,East,86,0.0,-999.0,54,-99.99,,,0.00,weatherlink.com 1.10,2013-05-28 07:12:00,
2013-05-28 01:27:00,33.2,18.0,29.74,East,86,0.0,-999.0,55,-99.99,,,0.00,weatherlink.com 1.10,2013-05-28 07:27:00,
2013-05-28 01:42:00,31.9,20.0,29.73,East,86,0.0,-999.0,61,-99.99,,,0.00,weatherlink.com 1.10,2013-05-28 07:42:00,
2013-05-28 01:57:00,31.4,18.0,29.73,East,86,0.0,-999.0,59,-99.99,,,0.00,weatherlink.com 1.10,2013-05-28 07:57:00,
2013-05-28 02:12:00,30.9,19.0,29.73,East,86,0.0,-999.0,61,-99.99,,,0.00,weatherlink.com 1.10,2013-05-28 08:12:00,
2013-05-28 02:26:00,30.3,18.0,29.74,East,86,0.0,-999.0,61,-99.99,,,0.00,weatherlink.com 1.10,2013-05-28 08:26:00,
2013-05-28 02:41:00,29.6,18.0,29.74,East,86,0.0,-999.0,62,-99.99,,,0.00,weatherlink.com 1.10,2013-05-28 08:41:00,
2013-05-28 02:56:00,29.0,18.0,29.74,East,86,0.0,-999.0,64,-99.99,,,0.00,weatherlink.com 1.10,2013-05-28 08:56:00,
2013-05-28 03:11:00,28.7,18.0,29.74,East,86,0.0,-999.0,65,-99.99,,,0.00,weatherlink.com 1.10,2013-05-28 09:11:00,
2013-05-28 03:26:00,28.4,18.0,29.74,East,86,0.0,-999.0,65,-99.99,,,0.00,weatherlink.com 1.10,2013-05-28 09:26:00,
2013-05-28 03:41:00,28.1,18.0,29.74,East,86,0.0,-999.0,66,-99.99,,,0.00,weatherlink.com 1.10,2013-05-28 09:41:00,
2013-05-28 03:56:00,29.0,19.0,29.74,East,86,0.0,-999.0,67,-99.99,,,0.00,weatherlink.com 1.10,2013-05-28 09:56:00,
2013-05-28 04:11:00,28.6,18.0,29.74,East,86,0.0,-999.0,66,-99.99,,,0.00,weatherlink.com 1.10,2013-05-28 10:11:00,
2013-05-28 04:26:00,27.9,18.0,29.75,East,86,0.0,-999.0,67,-99.99,,,0.00,weatherlink.com 1.10,2013-05-28 10:26:00,
2013-05-28 04:41:00,27.3,18.0,29.75,East,86,0.0,-999.0,68,-99.99,,,0.00,weatherlink.com 1.10,2013-05-28 10:41:00,
2013-05-28 04:56:00,27.1,19.0,29.74,East,86,0.0,-999.0,70,-99.99,,,0.00,weatherlink.com 1.10,2013-05-28 10:56:00,
2013-05-28 05:11:00,26.9,18.0,29.75,East,86,0.0,-999.0,69,-99.99,,,0.00,weatherlink.com 1.10,2013-05-28 11:11:00,
2013-05-28 05:26:00,26.7,18.0,29.76,East,86,1.0,-999.0,70,-99.99,,,0.00,weatherlink.com 1.10,2013-05-28 11:26:00,
2013-05-28 05:41:00,27.8,18.0,29.75,East,86,0.0,-999.0,67,-99.99,,,0.00,weatherlink.com 1.10,2013-05-28 11:41:00,
2013-05-28 05:56:00,27.8,18.0,29.75,East,86,0.0,-999.0,68,-99.99,,,0.00,weatherlink.com 1.10,2013-05-28 11:56:00,
2013-05-28 06:11:00,27.6,19.0,29.76,East,86,0.0,-999.0,70,-99.99,,,0.00,weatherlink.com 1.10,2013-05-28 12:11:00,
2013-05-28 06:26:00,27.6,19.0,29.75,East,86,0.0,-999.0,71,-99.99,,,0.00,weatherlink.com 1.10,2013-05-28 12:26:00,
2013-05-28 06:41:00,28.0,20.0,29.75,East,86,0.0,-999.0,71,-99.99,,,0.00,weatherlink.com 1.10,2013-05-28 12:41:00,
2013-05-28 06:56:00,29.2,21.0,29.75,East,86,0.0,-999.0,72,-99.99,,,0.00,weatherlink.com 1.10,2013-05-28 12:56:00,
2013-05-28 07:11:00,31.2,23.0,29.75,East,86,0.0,-999.0,73,-99.99,,,0.00,weatherlink.com 1.10,2013-05-28 13:11:00,
2013-05-28 07:26:00,33.7,26.0,29.75,East,86,0.0,-999.0,72,-99.99,,,0.00,weatherlink.com 1.10,2013-05-28 13:26:00,
2013-05-28 07:41:00,36.2,27.0,29.74,East,86,0.0,-999.0,69,-99.99,,,0.00,weatherlink.com 1.10,2013-05-28 13:41:00,
2013-05-28 07:56:00,40.3,23.0,29.74,East,86,0.0,-999.0,50,-99.99,,,0.00,weatherlink.com 1.10,2013-05-28 13:56:00,
2013-05-28 08:11:00,44.3,23.0,29.73,West,281,0.0,-999.0,44,-99.99,,,0.00,weatherlink.com 1.10,2013-05-28 14:11:00,
2013-05-28 08:26:00,46.9,23.0,29.73,WNW,286,0.0,-999.0,39,-99.99,,,0.00,weatherlink.com 1.10,2013-05-28 14:26:00,
2013-05-28 08:41:00,48.4,23.0,29.73,WSW,254,0.0,-999.0,37,-99.99,,,0.00,weatherlink.com 1.10,2013-05-28 14:41:00,
2013-05-28 08:56:00,49.7,21.0,29.73,SW,215,3.0,-999.0,33,-99.99,,,0.00,weatherlink.com 1.10,2013-05-28 14:56:00,
2013-05-28 09:11:00,50.3,23.0,29.73,NNE,22,0.0,-999.0,34,-99.99,,,0.00,weatherlink.com 1.10,2013-05-28 15:11:00,
2013-05-28 09:26:00,50.7,24.0,29.72,SW,231,1.0,-999.0,35,-99.99,,,0.00,weatherlink.com 1.10,2013-05-28 15:26:00,
2013-05-28 09:41:00,51.7,23.0,29.72,SSW,207,0.0,-999.0,32,-99.99,,,0.00,weatherlink.com 1.10,2013-05-28 15:41:00,
2013-05-28 09:56:00,52.9,21.0,29.71,West,281,0.0,-999.0,29,-99.99,,,0.00,weatherlink.com 1.10,2013-05-28 15:56:00,
2013-05-28 10:11:00,52.4,20.0,29.72,East,92,3.0,-999.0,28,-99.99,,,0.00,weatherlink.com 1.10,2013-05-28 16:11:00,
2013-05-28 10:26:00,52.2,19.0,29.72,South,188,3.0,-999.0,27,-99.99,,,0.00,weatherlink.com 1.10,2013-05-28 16:26:00,
2013-05-28 10:41:00,52.3,20.0,29.70,NW,305,0.0,-999.0,28,-99.99,,,0.00,weatherlink.com 1.10,2013-05-28 16:41:00,
2013-05-28 10:56:00,51.5,19.0,29.71,NNE,19,1.0,-999.0,28,-99.99,,,0.00,weatherlink.com 1.10,2013-05-28 16:56:00,
2013-05-28 11:11:00,52.2,20.0,29.71,SE,140,2.0,-999.0,28,-99.99,,,0.00,weatherlink.com 1.10,2013-05-28 17:11:00,
2013-05-28 11:26:00,55.1,21.0,29.70,West,267,4.0,-999.0,26,-99.99,,,0.00,weatherlink.com 1.10,2013-05-28 17:26:00,
2013-05-28 11:41:00,56.4,21.0,29.69,East,97,1.0,-999.0,25,-99.99,,,0.00,weatherlink.com 1.10,2013-05-28 17:41:00,
2013-05-28 12:11:00,55.2,21.0,29.69,NE,55,0.0,-999.0,26,-99.99,,,0.00,weatherlink.com 1.10,2013-05-28 18:11:00,
2013-05-28 12:26:00,55.7,20.0,29.68,NE,47,1.0,-999.0,25,-99.99,,,0.00,weatherlink.com 1.10,2013-05-28 18:26:00,
2013-05-28 12:41:00,56.4,23.0,29.68,WNW,283,4.0,-999.0,27,-99.99,,,0.00,weatherlink.com 1.10,2013-05-28 18:41:00,
2013-05-28 12:56:00,56.2,22.0,29.68,NW,307,7.0,-999.0,26,-99.99,,,0.00,weatherlink.com 1.10,2013-05-28 18:56:00,
2013-05-28 13:11:00,55.5,21.0,29.67,WNW,285,0.0,-999.0,26,-99.99,,,0.00,weatherlink.com 1.10,2013-05-28 19:11:00,
2013-05-28 13:26:00,56.8,21.0,29.67,ENE,72,1.0,-999.0,25,-99.99,,,0.00,weatherlink.com 1.10,2013-05-28 19:26:00,
2013-05-28 13:41:00,56.7,21.0,29.66,SE,126,2.0,-999.0,25,-99.99,,,0.00,weatherlink.com 1.10,2013-05-28 19:41:00,
2013-05-28 13:56:00,56.1,21.0,29.65,East,82,1.0,-999.0,26,-99.99,,,0.00,weatherlink.com 1.10,2013-05-28 19:56:00,
2013-05-28 14:12:00,55.3,21.0,29.65,NNE,21,1.0,-999.0,26,-99.99,,,0.00,weatherlink.com 1.10,2013-05-28 20:12:00,
2013-05-28 14:27:00,55.7,21.0,29.65,SSW,211,2.0,-999.0,26,-99.99,,,0.00,weatherlink.com 1.10,2013-05-28 20:27:00,
2013-05-28 14:42:00,55.9,19.0,29.64,NNE,26,4.0,-999.0,24,-99.99,,,0.00,weatherlink.com 1.10,2013-05-28 20:42:00,
2013-05-28 14:57:00,55.4,20.0,29.64,NE,46,6.0,-999.0,25,-99.99,,,0.00,weatherlink.com 1.10,2013-05-28 20:57:00,
2013-05-28 15:12:00,56.3,19.0,29.64,ENE,69,0.0,-999.0,23,-99.99,,,0.00,weatherlink.com 1.10,2013-05-28 21:12:00,
2013-05-28 15:27:00,59.0,20.0,29.62,NNE,14,4.0,-999.0,22,-99.99,,,0.00,weatherlink.com 1.10,2013-05-28 21:27:00,
2013-05-28 15:42:00,57.7,21.0,29.61,North,5,2.0,-999.0,24,-99.99,,,0.00,weatherlink.com 1.10,2013-05-28 21:42:00,
2013-05-28 15:57:00,56.0,19.0,29.61,NE,48,0.0,-999.0,24,-99.99,,,0.00,weatherlink.com 1.10,2013-05-28 21:57:00,
2013-05-28 16:12:00,55.7,17.0,29.61,NNE,20,2.0,-999.0,22,-99.99,,,0.00,weatherlink.com 1.10,2013-05-28 22:12:00,
2013-05-28 16:27:00,56.7,20.0,29.61,North,5,1.0,-999.0,24,-99.99,,,0.00,weatherlink.com 1.10,2013-05-28 22:27:00,
2013-05-28 16:42:00,56.1,19.0,29.60,NNE,27,1.0,-999.0,23,-99.99,,,0.00,weatherlink.com 1.10,2013-05-28 22:42:00,
2013-05-28 16:57:00,57.5,20.0,29.60,WSW,244,5.0,-999.0,23,-99.99,,,0.00,weatherlink.com 1.10,2013-05-28 22:57:00,
2013-05-28 17:12:00,57.3,19.0,29.59,SSE,165,0.0,-999.0,22,-99.99,,,0.00,weatherlink.com 1.10,2013-05-28 23:12:00,
2013-05-28 17:27:00,56.2,14.0,29.59,NNE,30,1.0,-999.0,19,-99.99,,,0.00,weatherlink.com 1.10,2013-05-28 23:27:00,
2013-05-28 17:42:00,55.2,13.0,29.59,ENE,59,7.0,-999.0,19,-99.99,,,0.00,weatherlink.com 1.10,2013-05-28 23:42:00,
2013-05-28 17:57:00,54.5,15.0,29.61,NE,53,3.0,-999.0,21,-99.99,,,0.00,weatherlink.com 1.10,2013-05-28 23:57:00,
2013-05-28 18:12:00,54.1,15.0,29.61,North,9,0.0,-999.0,21,-99.99,,,0.00,weatherlink.com 1.10,2013-05-29 00:12:00,
2013-05-28 18:27:00,53.8,17.0,29.61,SE,128,5.0,-999.0,23,-99.99,,,0.00,weatherlink.com 1.10,2013-05-29 00:27:00,
2013-05-28 18:42:00,53.6,16.0,29.61,ESE,121,1.0,-999.0,23,-99.99,,,0.00,weatherlink.com 1.10,2013-05-29 00:42:00,
2013-05-28 18:57:00,53.3,15.0,29.61,East,84,2.0,-999.0,22,-99.99,,,0.00,weatherlink.com 1.10,2013-05-29 00:57:00,
2013-05-28 19:12:00,52.9,19.0,29.62,ENE,60,0.0,-999.0,26,-99.99,,,0.00,weatherlink.com 1.10,2013-05-29 01:12:00,
2013-05-28 19:27:00,52.1,24.0,29.62,ENE,57,0.0,-999.0,33,-99.99,,,0.00,weatherlink.com 1.10,2013-05-29 01:27:00,
2013-05-28 19:42:00,50.7,23.0,29.61,NE,47,2.0,-999.0,34,-99.99,,,0.00,weatherlink.com 1.10,2013-05-29 01:42:00,
2013-05-28 19:57:00,49.6,23.0,29.62,NE,54,1.0,-999.0,35,-99.99,,,0.00,weatherlink.com 1.10,2013-05-29 01:57:00,
2013-05-28 20:12:00,48.4,23.0,29.63,ENE,57,0.0,-999.0,37,-99.99,,,0.00,weatherlink.com 1.10,2013-05-29 02:12:00,
2013-05-28 20:27:00,47.3,24.0,29.63,East,82,1.0,-999.0,40,-99.99,,,0.00,weatherlink.com 1.10,2013-05-29 02:27:00,
2013-05-28 20:42:00,46.2,23.0,29.63,East,82,1.0,-999.0,40,-99.99,,,0.00,weatherlink.com 1.10,2013-05-29 02:42:00,
2013-05-28 20:57:00,45.7,23.0,29.63,East,82,0.0,-999.0,41,-99.99,,,0.00,weatherlink.com 1.10,2013-05-29 02:57:00,
2013-05-28 21:12:00,45.2,23.0,29.63,ESE,104,0.0,-999.0,42,-99.99,,,0.00,weatherlink.com 1.10,2013-05-29 03:12:00,
2013-05-28 21:27:00,44.7,23.0,29.63,ENE,63,0.0,-999.0,42,-99.99,,,0.00,weatherlink.com 1.10,2013-05-29 03:27:00,
2013-05-28 21:42:00,44.2,22.0,29.63,ENE,65,0.0,-999.0,42,-99.99,,,0.00,weatherlink.com 1.10,2013-05-29 03:42:00,
2013-05-28 21:57:00,43.6,22.0,29.62,ENE,65,0.0,-999.0,42,-99.99,,,0.00,weatherlink.com 1.10,2013-05-29 03:57:00,
2013-05-28 22:12:00,43.0,21.0,29.62,ENE,65,1.0,-999.0,41,-99.99,,,0.00,weatherlink.com 1.10,2013-05-29 04:12:00,
2013-05-28 22:27:00,43.1,21.0,29.62,ENE,65,0.0,-999.0,42,-99.99,,,0.00,weatherlink.com 1.10,2013-05-29 04:27:00,
2013-05-28 22:42:00,43.0,21.0,29.61,ENE,65,0.0,-999.0,42,-99.99,,,0.00,weatherlink.com 1.10,2013-05-29 04:42:00,
2013-05-28 22:57:00,42.6,21.0,29.60,East,101,0.0,-999.0,43,-99.99,,,0.00,weatherlink.com 1.10,2013-05-29 04:57:00,
2013-05-28 23:12:00,42.5,21.0,29.60,East,86,0.0,-999.0,43,-99.99,,,0.00,weatherlink.com 1.10,2013-05-29 05:12:00,
2013-05-28 23:27:00,42.0,21.0,29.59,NE,49,0.0,-999.0,44,-99.99,,,0.00,weatherlink.com 1.10,2013-05-29 05:27:00,
2013-05-28 23:42:00,41.1,21.0,29.59,NE,49,0.0,-999.0,45,-99.99,,,0.00,weatherlink.com 1.10,2013-05-29 05:42:00,
2013-05-28 23:57:00,40.4,21.0,29.59,NE,49,0.0,-999.0,46,-99.99,,,0.00,weatherlink.com 1.10,2013-05-29 05:57:00,